Home > Weather > Cheyenne > Past weeks

Flag for U.S.A. Weather for the Past 2 Weeks in Cheyenne, Wyoming, U.S.A.

Now
45 °F

Scattered clouds.


Feels Like: 36 °F
Forecast: 36 / 52 °F
Wind: 23 mph from West

Location: Cheyenne Airport

Current Time: Feb 11, 2016 at 8:58:40 AM

Latest Report: Feb 11, 2016 at 7:53 AM


Visibility: 10 mi

Pressure: 30.06 "Hg (23.98 "Hg at 1855m altitude)

Humidity: 31%

Dew point: 16 °F

Location of CheyenneLocation

Historic Weather in Cheyenne — Graph

°F

Cheyenne Temperature Yesterday

Maximum temperature yesterday: 58 °F (at 2:53 PM)
Minimum temperature yesterday: 36 °F (at 10:53 PM)
Average temperature yesterday: 45 °F

High & Low Weather Summary for the Past Weeks

 TemperatureHumidityPressure
High58 °F (Feb 10, 2:53 PM)96% (Feb 1, 7:53 AM)30.51 "Hg (Feb 1, 7:53 AM)
Low7 °F (Feb 3, 5:53 AM)17% (Feb 10, 2:53 PM)29.40 "Hg (Jan 30, 10:53 AM)
Average31 °F55%30.06 "Hg
* Reported Jan 27 7:53 AM — Feb 11 7:53 AM, Cheyenne, Weather by CustomWeather, © 2016

Note: Actual official high and low records may vary slightly from our data, if they occured in-between our weather recording intervals... More about our weather records

Advertising

Cheyenne Weather History for the Previous 24 Hours

 ConditionsComfort  
Time TempWeatherWind HumidityBarometerVisibility
7:53 AM
Thu, Feb 11
45 °FScattered clouds.23 mph31%30.06 "Hg10 mi
6:53 AM44 °FClear.21 mph32%30.07 "Hg10 mi
5:53 AM44 °FClear.10 mph31%30.05 "Hg10 mi
4:53 AM43 °FClear.13 mph32%30.06 "Hg10 mi
3:53 AM42 °FClear.22 mph33%30.02 "Hg10 mi
2:53 AM37 °FClear.N/A41%30.03 "Hg10 mi
1:53 AM36 °FClear.9 mph44%30.06 "Hg10 mi
12:53 AM40 °FClear.14 mph36%30.07 "Hg10 mi
11:53 PM
Wed, Feb 10
39 °FClear.16 mph38%30.09 "Hg10 mi
10:53 PM36 °FClear.8 mph44%30.12 "Hg10 mi
9:53 PM38 °FClear.5 mph39%30.12 "Hg10 mi
8:53 PM37 °FClear.5 mph44%30.13 "Hg10 mi
7:53 PM39 °FClear.12 mph41%30.14 "Hg10 mi
6:53 PM41 °FClear.7 mph36%30.15 "Hg10 mi
5:53 PM44 °FClear.15 mph32%30.12 "Hg10 mi
4:53 PM47 °FSunny.18 mph33%30.07 "Hg10 mi
3:53 PM51 °FSunny.20 mph27%30.04 "Hg10 mi
2:53 PM58 °FSunny.18 mph17%29.96 "Hg10 mi
1:53 PM57 °FSunny.28 mph20%29.96 "Hg10 mi
12:53 PM56 °FSunny.24 mph24%29.99 "Hg10 mi
11:53 AM55 °FSunny.26 mph24%30.03 "Hg10 mi
10:53 AM53 °FSunny.25 mph24%30.06 "Hg10 mi
9:53 AM51 °FSunny.23 mph25%30.09 "Hg10 mi
8:53 AM49 °FSunny.24 mph26%30.09 "Hg10 mi
Weather by CustomWeather, © 2016

See weather overviewHow to use our weather pages